TimeCDT,TemperatureF,Dew PointF,Humidity,Sea Level PressureIn,VisibilityMPH,Wind Direction,Wind SpeedMPH,Gust SpeedMPH,PrecipitationIn,Events,Conditions,WindDirDegrees,DateUTC
12:53 AM,51.1,46.9,86,30.21,10.0,SSE,8.1,-,N/A,,Overcast,150,2013-04-27 05:53:00
1:53 AM,51.1,46.9,86,30.19,10.0,SE,5.8,-,N/A,,Overcast,130,2013-04-27 06:53:00
2:53 AM,50.0,46.9,89,30.17,8.0,SE,6.9,-,N/A,,Overcast,140,2013-04-27 07:53:00
3:50 AM,50.0,46.4,87,30.16,7.0,ENE,3.5,-,N/A,,Overcast,60,2013-04-27 08:50:00
3:53 AM,50.0,46.9,89,30.16,7.0,NE,3.5,-,N/A,,Overcast,40,2013-04-27 08:53:00
4:43 AM,50.0,46.4,87,30.16,9.0,NNE,6.9,-,N/A,,Overcast,30,2013-04-27 09:43:00
4:51 AM,50.0,46.4,87,30.15,10.0,ENE,4.6,-,N/A,,Overcast,60,2013-04-27 09:51:00
4:53 AM,50.0,46.0,86,30.15,10.0,ENE,5.8,-,N/A,,Overcast,60,2013-04-27 09:53:00
5:14 AM,50.0,46.4,87,30.15,10.0,East,3.5,-,N/A,,Overcast,80,2013-04-27 10:14:00
5:33 AM,50.0,46.4,87,30.15,10.0,East,3.5,-,N/A,,Overcast,90,2013-04-27 10:33:00
5:53 AM,50.0,46.0,86,30.15,10.0,Calm,Calm,-,N/A,,Overcast,0,2013-04-27 10:53:00
6:53 AM,50.0,46.0,86,30.15,10.0,East,3.5,-,N/A,,Overcast,80,2013-04-27 11:53:00
7:53 AM,50.0,45.0,83,30.16,10.0,East,4.6,-,N/A,,Overcast,80,2013-04-27 12:53:00
8:53 AM,51.1,45.0,80,30.16,10.0,East,5.8,-,N/A,,Overcast,90,2013-04-27 13:53:00
9:53 AM,51.1,46.0,83,30.15,10.0,East,5.8,-,N/A,,Overcast,100,2013-04-27 14:53:00
10:53 AM,53.1,45.0,74,30.15,10.0,Calm,Calm,-,N/A,,Overcast,0,2013-04-27 15:53:00
11:53 AM,53.1,46.0,77,30.15,10.0,Calm,Calm,-,N/A,,Overcast,0,2013-04-27 16:53:00
12:53 PM,55.0,46.9,74,30.13,10.0,WNW,4.6,-,N/A,,Overcast,290,2013-04-27 17:53:00
1:53 PM,57.0,46.9,69,30.11,10.0,NW,3.5,-,N/A,,Overcast,320,2013-04-27 18:53:00
2:53 PM,57.9,46.9,67,30.09,10.0,Calm,Calm,-,N/A,,Overcast,0,2013-04-27 19:53:00
3:15 PM,60.8,48.2,63,30.08,10.0,Calm,Calm,-,N/A,,Scattered Clouds,0,2013-04-27 20:15:00
3:53 PM,62.1,48.0,60,30.06,10.0,East,5.8,-,N/A,,Clear,90,2013-04-27 20:53:00
4:53 PM,63.0,48.0,58,30.03,10.0,Calm,Calm,-,N/A,,Clear,0,2013-04-27 21:53:00
5:53 PM,63.0,48.0,58,30.01,10.0,ESE,3.5,-,N/A,,Clear,120,2013-04-27 22:53:00
6:53 PM,62.1,46.9,58,30.01,10.0,ESE,4.6,-,N/A,,Clear,120,2013-04-27 23:53:00
7:53 PM,57.9,46.0,65,29.99,10.0,SE,3.5,-,N/A,,Clear,130,2013-04-28 00:53:00
8:53 PM,55.0,45.0,69,30.00,10.0,SSE,5.8,-,N/A,,Clear,150,2013-04-28 01:53:00
9:53 PM,54.0,44.1,69,30.00,10.0,South,5.8,-,N/A,,Clear,180,2013-04-28 02:53:00
10:53 PM,52.0,46.0,80,29.99,10.0,South,9.2,-,N/A,,Clear,190,2013-04-28 03:53:00
11:53 PM,50.0,46.0,86,29.99,10.0,SSW,9.2,-,N/A,,Clear,200,2013-04-28 04:53:00